Left ArrowRight Arrow

33.74557, -117.86783

Hourly Observations for May 25, 2024

Temp ( °F °C ) Dew Point ( °F °C ) Humidity (%) Winds ( mph kmh ) Pressure ( in mb ) Visibility ( mi km ) Precip ( " mm )
12:53 am 00:53 Mostly Clear 60 15.6 52 11.1 75 75 SSW 6 9 29.95 1014 10 16 0.00 0.00
1:53 am 01:53 Cloudy 60 15.6 51 10.6 72 72 WSW 5 7 29.94 1014 10 16 0.00 0.00
2:06 am 02:06 Cloudy 60 15.6 51 10.6 72 72 WSW 6 9 29.94 1014 10 16 0.00 0.00
2:53 am 02:53 Cloudy 60 15.6 50 10 69 69 SW 3 6 29.94 1014 10 16 0.00 0.00
3:53 am 03:53 Cloudy 59 15 51 10.6 75 75 Calm 29.94 1014 10 16 0.00 0.00
4:53 am 04:53 Cloudy 60 15.6 51 10.6 72 72 Calm 29.94 1014 10 16 0.00 0.00
5:53 am 05:53 Mostly Cloudy 59 15 51 10.6 75 75 WSW 3 6 29.95 1014 10 16 0.00 0.00
6:53 am 06:53 Cloudy 60 15.6 51 10.6 72 72 Calm 29.97 1015 10 16 0.00 0.00
7:53 am 07:53 Cloudy 61 16.1 51 10.6 70 70 N 3 6 29.98 1015 10 16 0.00 0.00
8:53 am 08:53 Cloudy 62 16.7 51 10.6 67 67 Calm 30.00 1016 10 16 0.00 0.00
9:53 am 09:53 Mostly Cloudy 63 17.2 50 10 63 63 S 5 7 30.00 1016 10 16 0.00 0.00
10:53 am 10:53 Mostly Cloudy 65 18.3 50 10 58 58 S 10 17 30.01 1016 10 16 0.00 0.00
11:53 am 11:53 Mostly Cloudy 66 18.9 51 10.6 59 59 S 12 19 30.01 1016 10 16 0.00 0.00
12:53 pm 12:53 Partly Cloudy 68 20 51 10.6 55 55 SSW 12 19 30.01 1016 10 16 0.00 0.00
1:53 pm 13:53 Mostly Sunny 68 20 51 10.6 55 55 S 14 22 30.00 1016 10 16 0.00 0.00
2:53 pm 14:53 Partly Cloudy 68 20 51 10.6 55 55 SSW 10 17 29.99 1016 10 16 0.00 0.00
3:53 pm 15:53 Mostly Sunny 67 19.4 51 10.6 57 57 SW 10 17 29.98 1015 10 16 0.00 0.00
4:53 pm 16:53 Mostly Sunny 66 18.9 52 11.1 61 61 SSW 10 17 29.98 1015 10 16 0.00 0.00
5:53 pm 17:53 Partly Cloudy 65 18.3 52 11.1 63 63 SSW 13 20 29.97 1015 10 16 0.00 0.00
6:53 pm 18:53 Partly Cloudy 63 17.2 52 11.1 67 67 SSW 9 15 29.98 1015 10 16 0.00 0.00
7:53 pm 19:53 Mostly Cloudy 62 16.7 51 10.6 67 67 WSW 6 9 29.98 1015 10 16 0.00 0.00
8:53 pm 20:53 Mostly Cloudy 61 16.1 51 10.6 70 70 WSW 5 7 29.99 1016 10 16 0.00 0.00
9:53 pm 21:53 Mostly Cloudy 62 16.7 52 11.1 70 70 W 3 6 30.01 1016 10 16 0.00 0.00
10:53 pm 22:53 Mostly Cloudy 62 16.7 52 11.1 70 70 SSW 3 6 30.01 1016 10 16 0.00 0.00
11:53 pm 23:53 Cloudy 62 16.7 52 11.1 70 70 S 5 7 30.00 1016 10 16 0.00 0.00

Powered by Vaisala Xweather